Reflectivity
-20 -20 -20 -20 -20 -20 -20 -20 -20 -20 -20 -20 -20 -20 -20 -20 -20 -20 -8 -20 -20 -20 -20 -20 -20 -20 -20 -20 -20 -20 -20 -20 -20 -20 -20 -20 24 -20 -20 -20 -20 -20 -20 -20
-20 -20 -20 -20 -20 -20 -20 -20 -20 -20 -20 -20 -20 -20 -20 -20 -20 -20 -20 -20 -20 -20 -20 -20 -20 -20 -20 -20 -20 -20 -20 -20 -20 -20 -20 -20 -20 -20 -20 -20 -20 -20 -20 -20
-20 -20 -20 -20 -20 -20 -20 -20 -20 -20 -20 -20 -20 -20 -20 -20 -20 -20 -20 -20 -20 -20 -20 -20 -20 -20 -20 -20 -20 -20 -20 -20 -20 6 -20 -20 21 -20 -20 -20 -20 -20 -20 -20
-20 -20 -20 -20 -20 -20 -20 -20 -20 -20 -20 -20 -20 -20 -20 -20 -20 -20 -20 -20 -20 -20 -20 -20 -20 -20 -20 -20 -20 -20 -20 -20 -20 -20 -20 -20 -20 -20 16 -20 -20 -20 -20 -20
-20 -20 -20 -20 -20 -20 -20 -20 -20 -20 -20 -20 -20 -20 -20 -20 -20 -20 -20 -20 -20 -20 -20 -20 -20 -20 -20 -20 -20 -20 -19 -18 -20 -20 -20 -20 -20 -8 7 -20 12 -20 -20 -20
-20 -20 -20 -20 -20 -20 -20 -20 -20 -20 -20 -20 -20 -20 -20 -20 -20 -20 -20 -20 -20 -20 -20 -20 -20 -20 -20 -20 -20 -20 36 25 -19 -20 -13 -20 -20 13 20 14 8 -20 -20 -20
-20 -20 -20 -20 -20 -20 -20 -20 -20 -20 -20 -20 -20 -20 -20 -20 -20 -20 -20 -20 -20 -20 -20 -20 -20 -20 -20 -20 -20 -20 28 25 21 -20 6 26 -20 -20 14 -20 -1 -20 -20 -20
-20 -20 -20 -20 -20 -20 -20 -20 -20 -20 -20 -20 -20 -20 -20 -20 -20 -20 -20 -20 -20 -20 -20 -20 -20 -20 -20 -20 -20 -20 22 31 -15 -11 21 2 -20 15 -17 -20 -20 -20 -20 -20
-20 -20 -20 -20 -20 -20 -20 -20 -20 -20 -20 -20 -20 -20 -20 -20 -20 -20 -20 -20 -20 -20 -20 -20 -20 -20 -20 -20 -20 -20 -19 7 -20 -20 -20 -20 4 -20 -20 13 9 -15 -20 -20
-20 -20 -20 -20 -20 -20 -20 -20 -20 -20 -20 -20 -20 -20 -20 -20 -20 -20 -20 -20 -20 -20 -20 -20 -20 -20 -20 -20 -20 -19 -20 -20 10 -20 -20 -20 -18 -20 -20 -5 -19 -4 1 -20
-20 -20 -20 -20 -20 -20 -20 -20 -20 -20 -20 -20 -20 -20 -20 -20 -20 -20 -20 -20 -20 -20 -20 -20 -20 -20 -20 -20 -20 -20 -20 -20 -20 -20 -20 -20 -20 12 14 -20 18 -20 -20 -10
-20 -20 -20 -20 -20 -20 -20 -20 -20 -20 -20 -20 -20 -20 -20 -20 -20 -20 -20 -20 -20 -20 -20 -20 -20 -20 -20 -20 -20 -20 -20 -20 -20 -20 -20 5 24 21 13 -18 -20 -20 -16 -14
-20 -20 -20 -20 -20 -20 -20 -20 -20 -20 -20 -20 -20 -20 -20 -20 -20 -20 -20 -20 -20 -20 -20 -20 -20 -20 -20 -20 -20 -9 -16 -16 -20 -20 -7 -2 12 -20 -20 -20 -20 -18 -16 -16
-20 -20 -20 -20 -20 -20 -20 -20 -20 -20 -20 -20 -20 -20 -20 -20 -20 -20 -20 -20 -20 -20 -20 -20 -20 -20 -20 -20 -20 -17 22 -7 22 -1 7 9 0 -20 -20 -20 -20 -16 -14 -3
-20 -20 -20 -20 -20 -20 -20 -20 -20 -20 -20 -20 -20 -20 -20 -20 -20 -20 -20 -20 -20 -20 -20 -20 -20 -20 -20 -20 16 -20 -20 -20 15 14 5 -9 -20 -20 -20 -4 -20 -20 -14 -19
-20 -20 -20 -20 -20 -20 -20 -20 -20 -20 -20 -20 -20 -20 -20 -20 -20 -20 -20 -20 -20 -20 -20 -20 -20 -20 -20 -20 -20 -20 -20 -20 -20 -20 -20 -20 -20 6 -10 -20 -20 -18 -18 -12
-20 -20 -20 -20 20 -20 -20 -20 -20 -20 -20 -20 -20 -20 -20 -20 -20 -20 -20 -20 -20 -20 -20 -20 -20 -20 -20 -20 -20 -20 -20 -20 -20 -20 -20 -20 -19 -5 6 -13 -10 -3 -19 4
-20 -20 -20 -20 -20 -20 -20 -20 -20 -20 -20 -20 -20 -20 -20 -20 -20 -20 -20 -20 -20 -20 -20 -20 -20 -20 -20 -20 -20 -20 -20 -20 -20 -20 -20 -20 -20 -7 13 -2 4 13 5 4
-20 -20 -20 -20 -20 -20 -20 -20 -20 -20 -20 -20 -20 -20 -20 -20 -20 -20 -20 -20 -20 -20 -20 -20 -20 -20 -20 -20 -20 -20 -20 -20 -20 -20 -20 -20 3 7 7 14 13 21 27 39
-20 -20 -20 -20 -20 -20 -20 -20 -20 -20 -20 -20 -20 -20 -20 -20 -20 -20 -20 -20 -20 -20 -20 -20 -20 -20 -20 -20 -20 -20 -20 -20 -20 -20 -20 -20 -20 -20 -7 13 14 13 19 4
-20 -20 -20 -20 -20 -20 -20 -20 -20 -20 -20 -20 -20 -20 -20 -20 -20 -20 -20 -20 -20 -20 -20 -20 -20 -20 -20 -20 -20 -20 -20 -20 -20 -20 -20 -20 -20 -8 1 -9 5 20 12 -14
-20 -20 -20 -20 -20 -20 -20 -20 -20 -20 -20 -20 -20 -20 -20 -20 -20 -20 -20 -20 -20 -20 -20 -20 -20 -20 -20 -20 -20 -20 -20 -20 -20 -20 -12 5 8 8 -11 -16 -20 -20 -20 -20
-20 -20 -20 -20 -20 -20 -20 -20 -20 -20 -20 -20 -20 -20 -20 -20 -20 -20 -20 -20 -20 -20 -20 -20 -20 -20 -20 -20 -20 -20 -20 -20 -19 -20 -20 -20 -20 -20 -20 -20 -20 -20 -20 -20
-20 -20 -20 -20 -20 -20 -20 -20 -20 -20 -20 -20 -20 -20 -20 -20 -20 -20 -20 -20 -20 -20 -20 -20 -20 -20 -20 -20 -20 -20 -20 -20 -20 -20 -20 -20 -20 -20 -20 -20 -20 -20 -20 -20
-20 -20 -20 -20 -20 -20 -20 -20 -20 -20 -20 -20 -20 -20 -20 -20 -20 -20 -20 -20 -20 -20 -20 -20 -20 -20 -20 -20 -20 -20 -20 -20 -20 -20 -20 -20 -20 -20 -20 -20 -20 -20 -20 -20
-20 -20 -20 -20 -20 -20 -20 -20 -20 -20 -20 -20 -20 -20 -20 -20 -20 -20 -20 -20 -20 -20 -20 -20 -20 -20 -20 -20 -20 -20 -20 -20 -20 -20 -20 -20 -20 -20 -20 -20 -20 -20 -20 -20
Wind_Speed
3 4 4 7 5 3 1 1 3 5 5 6 9 5 9 10 8 9 11 12 12 14 12 7 8 8 8 8 8 9 9 8 8 4 4 3 4 2 2 3 6 6 6 6
5 3 8 4 4 5 3 2 6 5 4 6 2 4 4 9 9 13 13 13 14 10 8 9 9 9 11 12 11 10 10 11 10 8 3 4 4 2 3 3 5 6 7 6
5 4 2 4 4 1 4 3 5 6 3 4 3 4 3 4 3 6 8 8 9 12 12 12 13 14 13 15 15 14 13 13 12 9 6 4 4 4 3 2 4 3 6 7
5 5 4 1 2 4 3 4 4 4 3 3 1 3 5 5 8 6 8 9 11 12 9 10 13 13 14 12 10 12 14 15 11 11 9 8 7 6 3 4 3 4 6 7
7 3 4 3 5 4 8 4 1 1 4 3 4 5 6 2 8 15 14 12 14 12 13 13 14 13 10 11 12 8 6 8 9 11 10 7 5 4 3 5 7 6 5 7
5 3 3 6 4 5 1 2 6 4 3 3 2 4 6 6 14 19 17 13 15 11 11 10 9 8 8 7 8 10 10 12 9 11 9 9 10 8 7 5 6 4 4 4
1 3 3 1 1 3 3 5 4 5 5 5 1 1 10 9 6 7 10 12 15 13 12 11 12 12 10 12 12 12 14 12 11 11 10 11 12 13 13 12 8 9 6 4
6 6 6 3 5 7 2 7 6 2 2 4 3 5 8 4 7 8 9 8 8 10 13 14 15 14 13 12 11 12 14 11 10 11 10 9 11 9 9 11 11 9 9 8
6 5 2 1 1 1 3 2 5 8 3 3 4 7 10 3 5 7 8 4 7 9 11 14 11 13 12 12 14 15 13 12 10 10 9 10 10 12 12 12 10 8 8 6
7 2 2 1 1 1 2 7 4 3 2 3 4 5 6 8 6 5 6 8 4 5 7 7 9 10 9 10 10 9 11 13 12 10 10 10 11 10 10 11 10 9 8 9
5 5 5 2 7 8 2 1 5 5 5 5 1 7 8 7 5 4 7 8 7 6 7 6 7 7 7 6 7 11 10 10 9 9 7 8 8 9 10 9 10 11 10 8
7 6 5 10 3 2 4 7 6 6 4 1 4 9 5 9 7 5 6 7 5 6 7 6 6 5 6 8 7 7 5 7 7 6 6 6 8 10 11 11 11 11 10 7
8 1 1 9 4 2 4 5 4 5 4 7 6 8 3 6 7 7 7 5 3 4 6 7 7 8 8 5 5 5 6 7 7 7 9 8 9 10 11 10 10 9 8 8
9 4 9 10 9 5 5 6 5 6 4 5 7 7 8 9 7 9 7 6 5 7 7 6 6 6 5 6 5 4 5 6 8 8 8 10 10 10 9 8 7 7 6 7
8 8 5 5 4 5 6 5 9 8 6 7 8 8 10 8 6 7 6 6 5 4 5 5 4 4 6 5 5 5 4 5 4 5 7 6 3 4 6 6 6 6 6 5
1 5 5 4 1 1 4 6 6 5 4 5 6 7 9 3 2 4 2 5 7 5 2 2 2 4 5 6 6 7 8 9 9 7 5 5 5 5 6 7 7 6 7 7
9 8 5 5 2 4 7 8 8 6 5 7 8 11 5 1 2 3 4 7 8 8 8 9 8 6 2 3 5 4 3 5 5 6 6 7 7 5 6 8 9 9 6 4
8 8 4 4 3 2 7 1 4 9 7 5 5 3 5 7 4 6 6 5 8 7 8 8 6 5 6 5 7 7 6 7 7 7 7 7 9 10 8 8 7 6 4 5
2 7 5 6 5 5 4 5 9 9 9 7 6 6 7 6 5 7 6 8 7 6 6 4 4 6 8 10 9 12 11 10 11 10 10 10 10 10 8 7 5 3 3 1
6 8 6 3 6 9 9 5 5 5 5 8 9 9 9 6 5 4 5 4 6 6 5 7 8 7 9 8 9 13 12 12 12 10 10 10 9 8 5 4 3 2 2 4
4 4 6 3 3 9 8 4 5 6 11 9 12 9 8 5 4 8 9 7 6 7 8 8 10 10 8 7 10 13 13 12 8 7 6 6 5 5 3 2 1 3 4 4
9 8 4 4 3 9 8 4 10 9 2 7 8 9 7 8 9 9 9 8 8 9 9 9 11 10 8 8 11 11 10 5 5 5 6 6 5 4 3 3 3 4 4 5
3 9 9 11 10 5 6 4 6 5 6 7 9 6 10 11 6 7 8 9 8 9 8 6 10 11 9 8 8 10 5 6 6 7 6 5 4 4 4 3 5 4 4 3
3 3 4 5 5 7 5 3 2 2 4 6 5 9 10 10 11 12 10 9 9 7 8 7 11 11 10 8 9 7 6 6 6 6 6 5 5 6 5 3 3 3 4 4
5 8 7 3 3 1 5 5 5 3 6 10 8 6 11 16 12 12 11 9 8 7 6 7 10 10 9 9 10 9 8 7 7 7 6 6 4 5 5 4 4 4 5 5
6 9 8 10 10 8 6 8 7 7 6 8 15 11 9 11 13 13 10 8 8 8 8 9 10 11 9 10 10 9 9 7 7 6 5 4 4 3 4 5 7 5 10 13
Wind_Direction
13 69 221 226 171 180 272 234 238 243 223 161 214 209 181 182 191 190 208 209 207 218 220 191 184 175 170 179 176 174 161 162 149 141 144 156 155 125 140 132 133 128 121 119
21 238 221 200 185 171 192 14 316 300 19 183 124 264 198 170 210 197 194 217 210 213 196 193 181 182 190 194 191 175 176 167 175 173 148 142 143 143 118 116 100 117 121 115
160 256 201 158 202 38 334 343 292 218 33 52 85 345 217 189 219 186 200 213 224 208 196 200 192 190 190 196 193 187 178 175 178 170 131 87 86 66 75 90 101 115 120 122
224 255 244 217 132 122 307 193 260 242 105 203 177 262 265 225 227 230 213 212 214 216 216 205 196 198 200 198 189 190 181 174 173 166 164 169 169 154 168 135 118 121 116 106
245 212 199 232 213 153 239 49 330 57 104 109 343 94 262 148 231 237 233 219 224 207 206 208 205 204 199 175 187 175 154 173 181 172 174 164 134 109 122 117 126 118 111 122
227 267 208 216 199 176 315 139 50 45 88 57 316 124 270 189 212 224 228 227 222 201 201 205 204 180 179 170 155 141 155 202 185 178 163 156 139 139 142 146 144 148 124 114
359 237 282 198 165 34 111 60 353 358 12 224 248 71 241 261 240 241 244 219 215 204 181 182 185 188 185 179 173 168 192 203 185 177 168 163 161 167 169 165 160 154 152 158
171 307 187 183 211 181 178 140 147 235 206 278 322 251 263 227 288 268 251 248 197 203 190 186 191 187 191 183 180 168 195 198 183 181 180 168 166 174 178 172 166 169 166 164
146 266 267 165 19 124 193 115 160 105 12 52 262 293 300 358 334 328 320 293 205 191 199 199 188 187 177 182 187 182 185 190 188 184 174 175 170 174 176 176 170 164 158 153
201 152 205 231 62 249 200 158 91 16 166 252 285 285 245 320 320 322 310 284 259 177 198 195 192 188 183 193 185 182 181 183 189 179 180 179 184 173 168 163 160 157 161 161
133 127 256 160 194 190 137 186 58 115 134 175 232 259 217 242 240 272 259 254 255 221 203 195 192 193 183 178 175 179 181 177 175 171 163 160 165 156 156 164 169 168 161 167
197 147 192 213 291 116 150 188 145 132 207 126 159 271 242 239 262 263 275 252 248 229 195 199 189 187 189 191 184 190 163 148 152 150 139 153 157 162 165 174 170 166 167 162
179 193 59 332 6 339 208 188 127 103 86 191 141 262 324 300 274 256 267 277 275 226 191 180 175 191 200 191 161 162 152 165 148 144 158 166 176 172 177 172 167 164 158 165
109 141 168 208 212 165 183 175 165 139 126 182 218 265 293 283 291 301 284 277 270 241 218 198 186 190 152 154 178 180 170 162 161 162 173 186 187 183 179 161 155 157 155 152
132 193 178 239 203 184 203 178 163 183 194 161 245 201 257 263 258 274 287 283 211 226 221 216 193 160 155 165 169 154 154 150 155 179 202 199 148 139 128 131 129 125 137 158
199 183 162 177 167 160 225 236 199 213 177 237 238 255 230 303 315 342 36 62 62 56 357 258 243 178 185 176 191 186 181 180 168 175 175 153 142 124 126 133 136 135 144 152
145 132 116 230 25 46 325 221 212 209 203 177 202 221 163 106 23 15 78 86 76 59 50 41 30 26 4 225 202 196 131 119 135 130 129 119 120 117 116 122 122 126 117 97
136 114 105 172 43 247 247 235 205 212 238 226 279 217 173 148 103 60 23 95 78 60 44 34 23 33 25 37 59 77 84 100 102 90 95 101 109 105 96 85 75 65 72 61
121 122 108 143 188 291 284 206 176 177 257 194 189 137 136 145 104 34 29 42 63 64 56 54 34 38 41 52 63 72 65 71 78 80 86 94 102 99 94 88 89 62 39 303
67 64 116 134 157 213 226 229 159 102 274 182 148 167 163 169 99 199 118 76 74 68 53 54 44 53 60 50 78 86 83 83 81 84 82 78 77 78 79 88 130 79 217 243
64 27 149 109 208 288 249 219 141 125 237 170 160 167 168 164 159 126 122 97 88 80 73 68 66 65 57 60 83 84 90 87 95 98 105 109 112 112 123 44 179 239 266 275
153 140 181 90 67 280 174 106 170 215 255 159 150 159 152 119 117 111 107 99 92 88 81 75 82 73 62 62 84 80 72 62 65 71 65 55 50 41 27 335 311 296 282 281
196 175 177 174 207 224 212 204 237 189 158 169 136 146 139 135 141 128 121 106 96 95 87 79 87 80 64 62 70 80 58 59 59 59 58 49 27 6 348 321 307 305 296 268
261 141 146 105 215 221 233 218 242 221 158 127 130 136 144 127 127 114 110 105 101 94 93 92 92 85 75 61 60 64 57 54 60 55 40 27 17 356 351 329 302 293 287 285
193 135 160 280 277 340 252 221 161 105 91 91 65 94 120 122 119 121 116 111 107 101 90 89 91 86 75 67 56 43 37 47 50 47 34 25 17 5 344 330 296 292 269 256
195 168 163 214 189 168 198 157 139 130 124 121 118 97 93 117 121 122 112 110 111 102 98 87 84 85 75 69 59 46 38 46 50 44 24 7 355 343 338 331 324 303 296 301